Terug naar catalogus

TITAN 34D TRANSTAGE DEB

ActiefGTO
NORAD 23039·DEBRIS·🇺🇸 United States

Gelanceerd Sep 2, 1988 vanaf Cape Canaveral Space Force Station

Loading…

TLE

VerouderdSource: Space-Track

Epoch: Sep 13, 2026, 10:13 UTC

1 23039U 88077J   26256.42597692  .00000192  00000-0  48259-3 0  9995
2 23039  26.6136  92.4920 7380897 311.4285   5.3818  2.03927156 53014

Volg TITAN 34D TRANSTAGE DEB in realtime met AllMySat

Download on the App Store